This is the latest recevied weather packets stored in our database for station/object KD9ZDW. If no packets are shown the sender has not sent any weather packets the latest 10 day(s).
| Time | Temp. | Humidity | Pressure | Rain* | Wind** | Luminosity | Snow |
|---|---|---|---|---|---|---|---|
| 1777354911 | 15° C | 94% | 1007.9 hPa | 0 mm | - | 0 W/m² | - |
| 1777354608 | 15° C | 94% | 1007.6 hPa | 0 mm | - | 0 W/m² | - |
| 1777354303 | 15° C | 94% | 1007.7 hPa | 0 mm | - | 0 W/m² | - |
| 1777354001 | 15° C | 94% | 1007.5 hPa | 0 mm | - | 0 W/m² | - |
| 1777353697 | 15° C | 94% | 1007.5 hPa | 0 mm | - | 0 W/m² | - |
| 1777353395 | 15° C | 94% | 1007.1 hPa | 0 mm | - | 0 W/m² | - |
| 1777353093 | 15° C | 94% | 1006.8 hPa | 0 mm | - | 0 W/m² | - |
| 1777352791 | 15° C | 94% | 1006.2 hPa | 0 mm | - | 0 W/m² | - |
| 1777352489 | 15° C | 94% | 1005.8 hPa | 0 mm | - | 0 W/m² | - |
| 1777352186 | 15° C | 94% | 1005.3 hPa | 0 mm | - | 0 W/m² | - |
| 1777351883 | 15° C | 95% | 1005.8 hPa | 1.78 mm | - | 0 W/m² | - |
| 1777351581 | 15° C | 95% | 1006.4 hPa | 3.05 mm | - | 0 W/m² | - |
| 1777351279 | 15° C | 95% | 1007.7 hPa | 3.05 mm | - | 0 W/m² | - |
| 1777350978 | 15° C | 95% | 1008.5 hPa | 3.05 mm | - | 0 W/m² | - |
| 1777350674 | 15° C | 95% | 1008.8 hPa | 4.32 mm | - | 0 W/m² | - |
| 1777350371 | 15° C | 95% | 1009.2 hPa | 4.32 mm | - | 0 W/m² | - |
| 1777350068 | 15° C | 94% | 1009.8 hPa | 3.05 mm | - | 0 W/m² | - |
| 1777349764 | 15° C | 94% | 1010.3 hPa | 4.83 mm | - | 0 W/m² | - |
| 1777349462 | 15° C | 94% | 1010.9 hPa | 4.32 mm | - | 0 W/m² | - |
| 1777349161 | 15° C | 95% | 1011.8 hPa | 6.1 mm | - | 0 W/m² | - |
| 1777348857 | 15° C | 95% | 1012.2 hPa | 4.83 mm | - | 0 W/m² | - |
| 1777348555 | 15.56° C | 95% | 1012 hPa | 4.83 mm | - | 0 W/m² | - |
| 1777348253 | 15° C | 95% | 1010.9 hPa | 6.1 mm | - | 0 W/m² | - |
| 1777347950 | 15° C | 95% | 1012 hPa | 4.32 mm | - | 0 W/m² | - |
| 1777347649 | 15.56° C | 94% | 1013.1 hPa | 7.87 mm | - | 0 W/m² | - |
* Rain latest hour (hover to see other rain measurements)
** Current wind speed in m/s (hover to see current wind gust speed)